Time,TemperatureF,DewpointF,PressureIn,WindDirection,WindDirectionDegrees,WindSpeedMPH,WindSpeedGustMPH,Humidity,HourlyPrecipIn,Conditions,Clouds,dailyrainin,SolarRadiationWatts/m^2,SoftwareType,DateUTC
2013-01-17 00:12:00,17.0,11.0,-100.00,SE,144,0.0,0.0,77,-99.99,,,0.00,0.000000,,2013-01-17 08:12:00,
2013-01-17 00:22:00,17.0,11.0,-100.00,SE,144,0.0,0.0,77,-99.99,,,0.00,0.000000,,2013-01-17 08:22:00,
2013-01-17 00:32:00,17.0,11.0,-100.00,SE,144,0.0,0.0,77,-99.99,,,0.00,0.000000,,2013-01-17 08:32:00,
2013-01-17 01:12:00,15.0,11.0,-100.00,SE,140,0.0,0.0,82,0.00,,,0.00,0.000000,,2013-01-17 09:12:00,
2013-01-17 01:22:00,15.0,11.0,-100.00,SE,140,0.0,0.0,82,0.00,,,0.00,0.000000,,2013-01-17 09:22:00,
2013-01-17 02:12:00,16.0,11.0,-100.00,SE,140,0.0,0.0,79,-99.99,,,0.00,0.000000,,2013-01-17 10:12:00,
2013-01-17 02:22:00,16.0,11.0,-100.00,SE,140,0.0,0.0,79,-99.99,,,0.00,0.000000,,2013-01-17 10:22:00,
2013-01-17 02:32:00,16.0,11.0,-100.00,SE,140,0.0,0.0,79,-99.99,,,0.00,0.000000,,2013-01-17 10:32:00,
2013-01-17 02:42:00,16.0,11.0,-100.00,SE,140,0.0,0.0,79,-99.99,,,0.00,0.000000,,2013-01-17 10:42:00,
2013-01-17 03:12:00,15.0,10.0,-100.00,SE,133,0.0,0.0,81,0.00,,,0.00,0.000000,,2013-01-17 11:12:00,
2013-01-17 03:22:00,15.0,10.0,-100.00,SE,133,0.0,0.0,81,0.00,,,0.00,0.000000,,2013-01-17 11:22:00,
2013-01-17 04:12:00,14.0,9.0,-100.00,SE,136,0.0,0.0,79,-99.99,,,0.00,0.000000,,2013-01-17 12:12:00,
2013-01-17 04:22:00,14.0,9.0,-100.00,SE,136,0.0,0.0,79,-99.99,,,0.00,0.000000,,2013-01-17 12:22:00,
2013-01-17 05:12:00,14.0,6.0,-100.00,SE,142,0.0,2.0,71,-99.99,,,0.00,0.000000,,2013-01-17 13:12:00,
2013-01-17 05:22:00,14.0,6.0,-100.00,SE,142,0.0,2.0,71,-99.99,,,0.00,0.000000,,2013-01-17 13:22:00,
2013-01-17 05:33:00,14.0,6.0,-100.00,SE,142,0.0,2.0,71,-99.99,,,0.00,0.000000,,2013-01-17 13:33:00,
2013-01-17 05:42:00,14.0,6.0,-100.00,SE,142,0.0,2.0,71,-99.99,,,0.00,0.000000,,2013-01-17 13:42:00,
2013-01-17 06:12:00,13.0,7.0,-100.00,South,171,0.0,3.0,75,-99.99,,,0.00,0.000000,,2013-01-17 14:12:00,
2013-01-17 06:23:00,13.0,7.0,-100.00,South,171,0.0,3.0,75,-99.99,,,0.00,0.000000,,2013-01-17 14:23:00,
2013-01-17 06:32:00,13.0,7.0,-100.00,South,171,0.0,3.0,75,-99.99,,,0.00,0.000000,,2013-01-17 14:32:00,
2013-01-17 07:12:00,12.0,6.0,-100.00,SE,139,0.0,0.0,75,-99.99,,,0.00,0.000000,,2013-01-17 15:12:00,
2013-01-17 07:22:00,12.0,6.0,-100.00,SE,139,0.0,0.0,75,-99.99,,,0.00,0.000000,,2013-01-17 15:22:00,
2013-01-17 07:33:00,12.0,6.0,-100.00,SE,139,0.0,0.0,75,-99.99,,,0.00,0.000000,,2013-01-17 15:33:00,
2013-01-17 07:43:00,12.0,6.0,-100.00,SE,139,0.0,0.0,75,-99.99,,,0.00,0.000000,,2013-01-17 15:43:00,
2013-01-17 08:12:00,12.0,5.0,-100.00,SE,146,0.0,0.0,74,-99.99,,,-99.99,6.000000,,2013-01-17 16:12:00,
2013-01-17 08:22:00,12.0,5.0,-100.00,SE,146,0.0,0.0,74,-99.99,,,-99.99,6.000000,,2013-01-17 16:22:00,
2013-01-17 08:33:00,12.0,5.0,-100.00,SE,146,0.0,0.0,74,-99.99,,,-99.99,6.000000,,2013-01-17 16:33:00,
2013-01-17 09:12:00,24.0,5.0,-100.00,SE,145,0.0,0.0,44,-99.99,,,0.00,129.000000,,2013-01-17 17:12:00,
2013-01-17 09:22:00,24.0,5.0,-100.00,SE,145,0.0,0.0,44,-99.99,,,0.00,129.000000,,2013-01-17 17:22:00,
2013-01-17 09:33:00,24.0,5.0,-100.00,SE,145,0.0,0.0,44,-99.99,,,0.00,129.000000,,2013-01-17 17:33:00,
2013-01-17 09:43:00,24.0,5.0,-100.00,SE,145,0.0,0.0,44,-99.99,,,0.00,129.000000,,2013-01-17 17:43:00,
2013-01-17 10:03:00,36.0,6.0,-100.00,SSE,147,0.0,0.0,28,0.00,,,0.00,376.000000,,2013-01-17 18:03:00,
2013-01-17 10:12:00,36.0,6.0,-100.00,SSE,147,0.0,0.0,28,0.00,,,0.00,376.000000,,2013-01-17 18:12:00,
2013-01-17 10:22:00,36.0,6.0,-100.00,SSE,147,0.0,0.0,28,0.00,,,0.00,376.000000,,2013-01-17 18:22:00,
2013-01-17 10:33:00,36.0,6.0,-100.00,SSE,147,0.0,0.0,28,0.00,,,0.00,376.000000,,2013-01-17 18:33:00,
2013-01-17 10:43:00,36.0,6.0,-100.00,SSE,147,0.0,0.0,28,0.00,,,0.00,376.000000,,2013-01-17 18:43:00,
2013-01-17 11:12:00,41.0,5.0,-100.00,SE,128,0.0,0.0,22,0.00,,,-99.99,532.000000,,2013-01-17 19:12:00,
2013-01-17 11:22:00,41.0,5.0,-100.00,SE,128,0.0,0.0,22,0.00,,,-99.99,532.000000,,2013-01-17 19:22:00,
2013-01-17 11:32:00,41.0,5.0,-100.00,SE,128,0.0,0.0,22,0.00,,,-99.99,532.000000,,2013-01-17 19:32:00,
2013-01-17 11:42:00,41.0,5.0,-100.00,SE,128,0.0,0.0,22,0.00,,,-99.99,532.000000,,2013-01-17 19:42:00,
2013-01-17 12:12:00,45.0,7.0,-100.00,ESE,113,0.0,5.0,21,0.00,,,0.00,465.000000,,2013-01-17 20:12:00,
2013-01-17 12:22:00,45.0,7.0,-100.00,ESE,113,0.0,5.0,21,0.00,,,0.00,465.000000,,2013-01-17 20:22:00,
2013-01-17 12:33:00,45.0,7.0,-100.00,ESE,113,0.0,5.0,21,0.00,,,0.00,465.000000,,2013-01-17 20:33:00,
2013-01-17 12:43:00,45.0,7.0,-100.00,ESE,113,0.0,5.0,21,0.00,,,0.00,465.000000,,2013-01-17 20:43:00,
2013-01-17 13:12:00,44.0,10.0,-100.00,NE,47,4.0,8.0,24,0.00,,,0.00,632.000000,,2013-01-17 21:12:00,
2013-01-17 13:23:00,44.0,10.0,-100.00,NE,47,4.0,8.0,24,0.00,,,0.00,632.000000,,2013-01-17 21:23:00,
2013-01-17 13:33:00,44.0,10.0,-100.00,NE,47,4.0,8.0,24,0.00,,,0.00,632.000000,,2013-01-17 21:33:00,
2013-01-17 13:42:00,44.0,10.0,-100.00,NE,47,4.0,8.0,24,0.00,,,0.00,632.000000,,2013-01-17 21:42:00,
2013-01-17 14:12:00,46.0,9.0,-100.00,East,83,2.0,8.0,22,0.00,,,0.00,619.000000,,2013-01-17 22:12:00,
2013-01-17 14:22:00,46.0,9.0,-100.00,East,83,2.0,8.0,22,0.00,,,0.00,619.000000,,2013-01-17 22:22:00,
2013-01-17 14:33:00,46.0,9.0,-100.00,East,83,2.0,8.0,22,0.00,,,0.00,619.000000,,2013-01-17 22:33:00,
2013-01-17 14:42:00,46.0,9.0,-100.00,East,83,2.0,8.0,22,0.00,,,0.00,619.000000,,2013-01-17 22:42:00,
2013-01-17 15:12:00,44.0,10.0,-100.00,ENE,71,3.0,8.0,25,0.00,,,-99.99,515.000000,,2013-01-17 23:12:00,
2013-01-17 15:22:00,44.0,10.0,-100.00,ENE,71,3.0,8.0,25,0.00,,,-99.99,515.000000,,2013-01-17 23:22:00,
2013-01-17 15:32:00,44.0,10.0,-100.00,ENE,71,3.0,8.0,25,0.00,,,-99.99,515.000000,,2013-01-17 23:32:00,
2013-01-17 15:42:00,44.0,10.0,-100.00,ENE,71,3.0,8.0,25,0.00,,,-99.99,515.000000,,2013-01-17 23:42:00,
2013-01-17 16:12:00,43.0,10.0,-100.00,South,184,0.0,8.0,26,0.00,,,0.00,353.000000,,2013-01-18 00:12:00,
2013-01-17 16:23:00,43.0,10.0,-100.00,South,184,0.0,8.0,26,0.00,,,0.00,353.000000,,2013-01-18 00:23:00,
2013-01-17 16:32:00,43.0,10.0,-100.00,South,184,0.0,8.0,26,0.00,,,0.00,353.000000,,2013-01-18 00:32:00,
2013-01-17 16:42:00,43.0,10.0,-100.00,South,184,0.0,8.0,26,0.00,,,0.00,353.000000,,2013-01-18 00:42:00,
2013-01-17 17:12:00,32.0,12.0,-100.00,SE,136,0.0,5.0,42,0.00,,,0.00,119.000000,,2013-01-18 01:12:00,
2013-01-17 17:22:00,32.0,12.0,-100.00,SE,136,0.0,5.0,42,0.00,,,0.00,119.000000,,2013-01-18 01:22:00,
2013-01-17 17:32:00,32.0,12.0,-100.00,SE,136,0.0,5.0,42,0.00,,,0.00,119.000000,,2013-01-18 01:32:00,
2013-01-17 17:42:00,32.0,12.0,-100.00,SE,136,0.0,5.0,42,0.00,,,0.00,119.000000,,2013-01-18 01:42:00,
2013-01-17 18:12:00,26.0,10.0,-100.00,SE,138,0.0,4.0,51,0.00,,,0.00,3.000000,,2013-01-18 02:12:00,
2013-01-17 18:22:00,26.0,10.0,-100.00,SE,138,0.0,4.0,51,0.00,,,0.00,3.000000,,2013-01-18 02:22:00,
2013-01-17 18:32:00,26.0,10.0,-100.00,SE,138,0.0,4.0,51,0.00,,,0.00,3.000000,,2013-01-18 02:32:00,
2013-01-17 18:42:00,26.0,10.0,-100.00,SE,138,0.0,4.0,51,0.00,,,0.00,3.000000,,2013-01-18 02:42:00,
2013-01-17 19:12:00,24.0,10.0,-100.00,SSE,148,0.0,3.0,55,0.00,,,0.00,0.000000,,2013-01-18 03:12:00,
2013-01-17 19:22:00,24.0,10.0,-100.00,SSE,148,0.0,3.0,55,0.00,,,0.00,0.000000,,2013-01-18 03:22:00,
2013-01-17 19:33:00,24.0,10.0,-100.00,SSE,148,0.0,3.0,55,0.00,,,0.00,0.000000,,2013-01-18 03:33:00,
2013-01-17 19:42:00,24.0,10.0,-100.00,SSE,148,0.0,3.0,55,0.00,,,0.00,0.000000,,2013-01-18 03:42:00,
2013-01-17 20:12:00,21.0,10.0,-100.00,SE,144,0.0,0.0,61,0.00,,,0.00,0.000000,,2013-01-18 04:12:00,
2013-01-17 20:22:00,21.0,10.0,-100.00,SE,144,0.0,0.0,61,0.00,,,0.00,0.000000,,2013-01-18 04:22:00,
2013-01-17 20:32:00,21.0,10.0,-100.00,SE,144,0.0,0.0,61,0.00,,,0.00,0.000000,,2013-01-18 04:32:00,
2013-01-17 20:42:00,21.0,10.0,-100.00,SE,144,0.0,0.0,61,0.00,,,0.00,0.000000,,2013-01-18 04:42:00,
2013-01-17 21:12:00,19.0,11.0,-100.00,SE,143,0.0,0.0,69,0.00,,,0.00,0.000000,,2013-01-18 05:12:00,
2013-01-17 21:22:00,19.0,11.0,-100.00,SE,143,0.0,0.0,69,0.00,,,0.00,0.000000,,2013-01-18 05:22:00,
2013-01-17 21:33:00,19.0,11.0,-100.00,SE,143,0.0,0.0,69,0.00,,,0.00,0.000000,,2013-01-18 05:33:00,
2013-01-17 21:42:00,19.0,11.0,-100.00,SE,143,0.0,0.0,69,0.00,,,0.00,0.000000,,2013-01-18 05:42:00,
2013-01-17 22:12:00,18.0,9.0,-100.00,SE,145,0.0,4.0,66,0.00,,,-99.99,0.000000,,2013-01-18 06:12:00,
2013-01-17 22:22:00,18.0,9.0,-100.00,SE,145,0.0,4.0,66,0.00,,,-99.99,0.000000,,2013-01-18 06:22:00,
2013-01-17 22:32:00,18.0,9.0,-100.00,SE,145,0.0,4.0,66,0.00,,,-99.99,0.000000,,2013-01-18 06:32:00,
2013-01-17 22:42:00,18.0,9.0,-100.00,SE,145,0.0,4.0,66,0.00,,,-99.99,0.000000,,2013-01-18 06:42:00,
2013-01-17 23:12:00,16.0,9.0,-100.00,SE,144,0.0,0.0,73,0.00,,,0.00,0.000000,,2013-01-18 07:12:00,
2013-01-17 23:22:00,16.0,9.0,-100.00,SE,144,0.0,0.0,73,0.00,,,0.00,0.000000,,2013-01-18 07:22:00,
2013-01-17 23:32:00,16.0,9.0,-100.00,SE,144,0.0,0.0,73,0.00,,,0.00,0.000000,,2013-01-18 07:32:00,
2013-01-17 23:42:00,16.0,9.0,-100.00,SE,144,0.0,0.0,73,0.00,,,0.00,0.000000,,2013-01-18 07:42:00,